Location: El Mouella
(16.4949°N, 9.1594°W)
Time: 02:07:42
(UTC+00:00)

H-2A R/B - Pass Details

Date: 28 September 2020
Orbit: 734 x 836 km, 98.2° (Epoch: 20 October)

Event Time Altitude Azimuth Distance (km) Brightness Sun altitude
Exits shadow 18:58:21 - 112° (ESE) 2,446 4.0 -8.2°
Reaches altitude 10° 18:59:11 10° 104° (ESE) 2,257 3.8 -8.4°
Maximum altitude 19:01:49 15° 72° (ENE) 1,974 3.5 -9.0°
Drops below altitude 10° 19:04:28 10° 40° (NE) 2,286 4.1 -9.7°
Sets 19:07:49 0° 17° (NNE) 3,234 5.1 -10.5°
